Location: Dehesa de la Cepeda
(40.6574°N, 4.3013°W)
Time: 13:33:32
(UTC+00:00)

Vanguard 2 Rocket - Pass Details

Date: 08 August 2021
Orbit: 556 x 3323 km, 32.9° (Epoch: 24 September)

Event Time Altitude Azimuth Distance (km) Brightness Sun altitude
Rises 09:55:04 0° 258° (WSW) 2,744 9.1 49.7°
Reaches altitude 10° 09:58:15 10° 230° (SW) 1,834 8.4 50.2°
Maximum altitude 10:00:15 13° 199° (SSW) 1,671 8.5 50.6°
Drops below altitude 10° 10:02:24 10° 168° (SSE) 1,987 9.2 50.9°
Sets 10:06:08 0° 142° (SE) 3,187 10.3 51.5°
